Regional Weather Roundup
Issued by NWS Albany, NY

Home | Current Version | Previous Version | Text Only | Print | Product List | Glossary On
Versions: 1 2 3 4 5 6 7 8 9 10 11 12 13 14 15 16 17 18 19 20 21 22 23 24 25 26 27 28 29 30 31 32 33 34 35 36 37 38 39 40 41 42 43 44 45 46 47 48 49 50
848
ASUS41 KALY 121310
RWRALY

NEW YORK STATE HOURLY WEATHER ROUNDUP
NATIONAL WEATHER SERVICE ALBANY NY
800 AM EST FRI FEB 12 2016

NOTE: "FAIR" INDICATES FEW OR NO CLOUDS BELOW 12,000 FEET WITH NO
SIGNIFICANT WEATHER AND/OR NO OBSTRUCTIONS TO VISIBILITY.

NYZ032-033-038>043-046>054-057>066-NYZ062>081-121400-
EAST


CITY           SKY/WX    TMP DP  RH WIND       PRES   REMARKS
ALBANY         PTCLDY     8  -1  66 S5        30.19S WCI   0
GLENS FALLS    PTCLDY    -1  -8  72 CALM      30.17S
POUGHKEEPSIE   SUNNY     15   0  51 SW5       30.23S WCI   8
NEWBURGH       SUNNY     10   3  72 W12       30.21F WCI  -4
MONTGOMERY     SUNNY     13   1  59 W6        30.20F WCI   4
WHITE PLAINS   SUNNY     14  -1  51 W7        30.21S WCI   4
ISLIP          MOSUNNY   15   1  53 SW7       30.26R WCI   5
NEW YORK CITY  MOSUNNY   18   0  45 W10       30.27R WCI   6
CENTRAL PARK   SUNNY     16  -1  47 W7        30.28R WCI   6
$$

NYZ005>009-017-018-044>046-055-056-121400-
CENTRAL


CITY           SKY/WX    TMP DP  RH WIND       PRES   REMARKS
FULTON         CLEAR     13   3  64 SW12      30.07S WCI  -1
SYRACUSE       MOCLDY    12   4  70 S15G21    30.08F WCI  -4
ROME           CLEAR     -1  -3  91 SE6       30.13S WCI -13
ELMIRA         CLEAR     -2  -5  87 CALM      30.13S
BINGHAMTON     CLEAR      5  -1  76 SW7       30.04F WCI  -7
MONTICELLO     CLEAR      3   1  92 CALM      30.11S
$$

NYZ026>034-041>043-121400-
NORTH


CITY           SKY/WX    TMP DP  RH WIND       PRES   REMARKS
WATERTOWN      SNOW      12   8  84 S13G20    30.03F VSB 1/4 WCI  -3
FORT DRUM      NOT AVBL
MASSENA        MOCLDY    -8 -14  74 NE3       30.08F
SARANAC LAKE   CLOUDY   -13 -17  82 S3        29.93S
PLATTSBURGH    CLEAR     -6 -11  79 CALM      30.12F
$$

NYZ001>004-010>016-019>021-121400-
WEST


CITY           SKY/WX    TMP DP  RH WIND       PRES   REMARKS
NIAGARA FALLS  MOCLDY    17   5  59 W15       30.04F WCI   2
BUFFALO        PTCLDY    12   7  80 SW7       30.05F WCI   1
DUNKIRK        LGT SNOW  14   9  80 S14       30.08F WCI  -1
JAMESTOWN      CLOUDY     9   3  78 SW10      30.01S WCI  -6
WELLSVILLE     LGT SNOW   8   2  76 SW10      30.00S WCI  -6
ROCHESTER      MOCLDY    15   8  73 S14       30.07F WCI   0
PENN YAN       CLOUDY    12   4  70 S9        30.07F WCI   0
$$

             KEY
       WCI = WIND CHILL INDEX
       VSB = VISIBILITY
       HX  = HEAT INDEX
$$




USA.gov is the U.S. government's official web portal to all federal, state and local government web resources and services.